This demonstration page uses our WeatherBlox Daily Observations layout. Learn more.

38.88101, -77.10428

Hourly Observations for April 12, 2020

Temp ( °F °C ) Dew Point ( °F °C ) Humidity (%) Winds ( mph kmh ) Pressure ( in mb ) Visibility ( mi km ) Precip ( " mm )
12:52 am 00:52 Cloudy 49 9.4 41 5 74 74 N 3 6 30.08 1019 10 16.0934 0 0
1:52 am 01:52 Mostly Cloudy 47 8.3 39 3.9 74 74 N 6 9 30.07 1018 10 16.0934 0 0
2:52 am 02:52 Partly Cloudy 48 8.9 36 2.2 63 63 NE 6 9 30.06 1018 10 16.0934 0 0
3:52 am 03:52 Partly Cloudy 49 9.4 36 2.2 61 61 ENE 3 6 30.07 1018 10 16.0934 0 0
4:52 am 04:52 Partly Cloudy 46 7.8 38 3.3 73 73 ENE 6 9 30.08 1019 10 16.0934 0 0
5:52 am 05:52 Mostly Cloudy 47 8.3 38 3.3 71 71 E 3 6 30.09 1019 10 16.0934 0 0
6:52 am 06:52 Mostly Cloudy 48 8.9 42 5.6 80 80 Calm 30.11 1020 10 16.0934 0 0
7:52 am 07:52 Mostly Cloudy 49 9.4 44 6.7 83 83 ENE 5 7 30.12 1020 10 16.0934 0 0
8:52 am 08:52 Mostly Cloudy 51 10.6 44 6.7 77 77 Calm 30.12 1020 10 16.0934 0 0
9:52 am 09:52 Mostly Cloudy 55 12.8 42 5.6 62 62 SSE 8 13 30.12 1020 10 16.0934 0 0
10:52 am 10:52 Cloudy 58 14.4 42 5.6 56 56 SSW 8 13 30.15 1021 10 16.0934 0 0
11:52 am 11:52 Mostly Cloudy 61 16.1 46 7.8 58 58 S 13 20 30.13 1020 10 16.0934 0 0
12:52 pm 12:52 Mostly Cloudy 64 17.8 47 8.3 54 54 SSW 10 17 30.11 1020 10 16.0934 0 0
1:52 pm 13:52 Mostly Cloudy 68 20 50 10 53 53 S 13 20 30.06 1018 10 16.0934 0.001 0.001
2:52 pm 14:52 Mostly Cloudy 72 22.2 48 8.9 43 43 S 18 30 30.04 1017 9 14.48406 0 0
3:52 pm 15:52 Cloudy 71 21.7 49 9.4 46 46 SSW 16 26 30.04 1017 10 16.0934 0 0
4:52 pm 16:52 Cloudy 71 21.7 48 8.9 44 44 S 9 15 30.03 1017 10 16.0934 0 0
5:52 pm 17:52 Cloudy 68 20 51 10.6 55 55 S 9 15 29.98 1015 10 16.0934 0 0
6:52 pm 18:52 Cloudy 68 20 51 10.6 55 55 SSE 12 19 29.98 1015 10 16.0934 0 0
7:52 pm 19:52 Cloudy 66 18.9 51 10.6 59 59 S 10 17 29.99 1016 10 16.0934 0 0
8:52 pm 20:52 Cloudy with Light Rain 63 17.2 54 12.2 73 73 S 5 7 30 1016 10 16.0934 0.01 0.254
9:52 pm 21:52 Cloudy with Light Rain 63 17.2 55 12.8 76 76 SSE 5 7 29.99 1016 10 16.0934 0.001 0.001
10:52 pm 22:52 Cloudy with Light Rain 63 17.2 56 13.3 78 78 S 13 20 29.98 1015 10 16.0934 0.001 0.001
11:52 pm 23:52 Cloudy with Light Rain 61 16.1 58 14.4 90 90 S 13 20 29.97 1015 5 8.0467 0.1 2.54

Powered by AerisWeather